Location: F M Corners
(41.2198°N, 80.4709°W)
Time: 18:35:03
(UTC+00:00)

IRS-1C Rocket - Pass Details

Date: 29 October 2020
Orbit: 801 x 805 km, 99.0° (Epoch: 24 November)

Event Time Altitude Azimuth Distance (km) Brightness Sun altitude
Rises 23:30:29 0° 163° (SSE) 3,300 7.2 -13.7°
Reaches altitude 10° 23:32:48 10° 163° (SSE) 2,374 6.4 -14.1°
Maximum altitude 23:38:04 86° 76° (ENE) 812 4.0 -15.1°
Drops below altitude 10° 23:43:22 10° 347° (NNW) 2,393 6.7 -16.1°
Sets 23:45:42 0° 347° (NNW) 3,328 7.4 -16.6°
